TimePDT,TemperatureF,Dew PointF,Humidity,Sea Level PressureIn,VisibilityMPH,Wind Direction,Wind SpeedMPH,Gust SpeedMPH,PrecipitationIn,Events,Conditions,WindDirDegrees,DateUTC
12:48 AM,52.0,39.0,61,29.96,10.0,NE,8.1,18.4,N/A,,Clear,50,2013-03-17 07:48:00
1:48 AM,50.0,37.9,63,29.96,10.0,NE,8.1,19.6,N/A,,Clear,50,2013-03-17 08:48:00
2:25 AM,50.0,37.4,62,30.06,10.0,NE,10.4,-,N/A,,Mostly Cloudy,50,2013-03-17 09:25:00
2:48 AM,50.0,36.0,59,29.96,10.0,NNE,4.6,23.0,N/A,,Mostly Cloudy,30,2013-03-17 09:48:00
3:06 AM,48.2,35.6,62,30.06,10.0,ENE,12.7,18.4,N/A,,Scattered Clouds,60,2013-03-17 10:06:00
3:48 AM,48.0,35.1,61,29.97,10.0,NE,9.2,18.4,N/A,,Partly Cloudy,50,2013-03-17 10:48:00
4:33 AM,46.4,33.8,62,30.06,10.0,NNE,10.4,19.6,N/A,,Mostly Cloudy,30,2013-03-17 11:33:00
4:48 AM,46.9,33.1,59,29.98,10.0,Variable,5.8,18.4,N/A,,Overcast,0,2013-03-17 11:48:00
5:03 AM,46.4,32.0,57,30.07,10.0,NNE,8.1,20.7,N/A,,Mostly Cloudy,30,2013-03-17 12:03:00
5:48 AM,46.0,30.9,56,29.97,10.0,North,28.8,38.0,N/A,,Clear,350,2013-03-17 12:48:00
6:48 AM,45.0,30.9,58,30.00,10.0,North,20.7,36.8,N/A,,Clear,350,2013-03-17 13:48:00
7:48 AM,46.0,30.0,54,30.04,10.0,ENE,6.9,-,N/A,,Clear,60,2013-03-17 14:48:00
8:48 AM,46.9,30.9,54,29.99,10.0,NNW,36.8,-,N/A,,Clear,330,2013-03-17 15:48:00
9:48 AM,51.1,30.0,44,30.00,10.0,NNW,33.4,-,N/A,,Clear,340,2013-03-17 16:48:00
10:48 AM,57.9,27.0,31,30.00,10.0,North,8.1,17.3,N/A,,Clear,360,2013-03-17 17:48:00
11:48 AM,59.0,27.0,29,30.00,10.0,NNW,18.4,25.3,N/A,,Clear,340,2013-03-17 18:48:00
12:48 PM,59.0,30.9,35,29.98,10.0,North,27.6,39.1,N/A,,Clear,360,2013-03-17 19:48:00
1:48 PM,59.0,30.0,33,29.97,10.0,North,11.5,28.8,N/A,,Clear,10,2013-03-17 20:48:00
2:48 PM,59.0,30.0,33,29.95,10.0,NNW,23.0,29.9,N/A,,Clear,340,2013-03-17 21:48:00
3:48 PM,59.0,33.1,38,29.96,10.0,NNW,21.9,28.8,N/A,,Clear,340,2013-03-17 22:48:00
4:48 PM,59.0,32.0,36,29.96,10.0,North,19.6,27.6,N/A,,Clear,350,2013-03-17 23:48:00
5:48 PM,55.0,30.9,40,29.97,10.0,NNW,24.2,33.4,N/A,,Clear,340,2013-03-18 00:48:00
6:48 PM,52.0,28.0,40,29.98,10.0,NNW,29.9,41.4,N/A,,Clear,340,2013-03-18 01:48:00
7:48 PM,51.1,27.0,39,29.99,10.0,NNW,17.3,32.2,N/A,,Clear,330,2013-03-18 02:48:00
8:48 PM,52.0,18.0,26,29.99,10.0,NNW,19.6,28.8,N/A,,Clear,330,2013-03-18 03:48:00
9:48 PM,51.1,18.0,27,29.99,10.0,Variable,6.9,-,N/A,,Clear,0,2013-03-18 04:48:00
10:48 PM,50.0,21.9,33,29.99,10.0,Variable,6.9,-,N/A,,Clear,0,2013-03-18 05:48:00
11:48 PM,48.9,28.9,46,29.99,10.0,Variable,4.6,-,N/A,,Clear,0,2013-03-18 06:48:00